This demonstration page uses our WeatherBlox Daily Observations layout. Learn more.

Left ArrowRight Arrow

Hourly Observations for August 12, 2019

Temp ( °F °C ) Dew Point ( °F °C ) Humidity (%) Winds ( mph kmh ) Pressure ( in mb ) Visibility ( mi km ) Precip ( " mm )
12:56 am 00:56 Clear 77 25 72 22 83 83 VRB 7 11 29.88 1012 10 16 0.00 0.00
1:56 am 01:56 Clear 75 24 72 22 89 89 VRB 7 11 29.85 1011 10 16 0.00 0.00
2:56 am 02:56 Mostly Clear 75 24 72 22 89 89 ESE 8 13 29.80 1009 10 16 0.00 0.00
3:16 am 03:16 Cloudy with Light Rain 75 24 72 22 89 89 E 10 17 29.78 1009 10 16 0.00 0.00
3:24 am 03:24 Cloudy with Thunderstorms 75 24 73 23 94 94 S 17 28 29.85 1011 8 13 0.00 0.00
3:28 am 03:28 Cloudy with Thunderstorms 73 23 72 22 94 94 SSE 17 28 29.85 1011 1 2 0.00 0.00
3:41 am 03:41 Cloudy with Thunderstorms 72 22 70 21 94 94 SSW 9 15 29.82 1010 2 3 0.00 0.00
3:56 am 03:56 Cloudy with Thunderstorms 72 22 70 21 94 94 SSW 7 11 29.80 1009 7 11 0.39 9.91
4:29 am 04:29 Cloudy with Light Rain 72 22 70 21 94 94 E 7 11 29.76 1008 6 10 0.00 0.00
4:56 am 04:56 Cloudy with Light Rain 72 22 70 21 94 94 SE 8 13 29.78 1009 6 10 0.08 2.03
5:56 am 05:56 Mostly Clear 72 22 70 21 94 94 SE 9 15 29.76 1008 10 16 0.01 0.25
6:56 am 06:56 Mostly Sunny 72 22 70 21 94 94 SSE 6 9 29.77 1008 10 16 0.00 0.00
7:56 am 07:56 Mostly Cloudy 72 22 68 20 88 88 SSE 9 15 29.77 1008 10 16 0.00 0.00
8:56 am 08:56 Partly Cloudy 73 23 70 21 89 89 SW 6 9 29.81 1010 10 16 0.00 0.00
9:56 am 09:56 Partly Cloudy 75 24 70 21 83 83 S 7 11 29.80 1009 10 16 0.00 0.00
10:11 am 10:11 Cloudy 75 24 70 21 83 83 SSW 7 11 29.80 1009 10 16 0.00 0.00
10:56 am 10:56 Mostly Cloudy 79 26 70 21 74 74 SW 6 9 29.81 1010 10 16 0.00 0.00
11:56 am 11:56 Mostly Cloudy 79 26 70 21 74 74 SW 3 6 29.81 1010 10 16 0.00 0.00
12:56 pm 12:56 Mostly Cloudy 82 28 70 21 66 66 W 5 7 29.81 1009 10 16 0.00 0.00
1:56 pm 13:56 Mostly Cloudy 84 29 70 21 62 62 WNW 6 9 29.79 1009 10 16 0.00 0.00
2:56 pm 14:56 Partly Cloudy 88 31 72 22 59 59 W 7 11 29.79 1009 10 16 0.00 0.00
3:56 pm 15:56 Mostly Cloudy 86 30 72 22 62 62 WNW 13 20 29.80 1009 10 16 0.00 0.00
4:56 pm 16:56 Mostly Cloudy 86 30 70 21 59 59 WNW 9 15 29.81 1010 10 16 0.00 0.00
5:56 pm 17:56 Mostly Cloudy 86 30 70 21 59 59 NW 12 19 29.81 1010 10 16 0.00 0.00
6:56 pm 18:56 Mostly Cloudy 86 30 70 21 59 59 WNW 9 15 29.80 1009 10 16 0.00 0.00
7:56 pm 19:56 Mostly Sunny 84 29 70 21 62 62 NW 6 9 29.81 1010 10 16 0.00 0.00
10:56 pm 22:56 Mostly Clear 79 26 72 22 79 79 Calm 29.86 1011 10 16 0.00 0.00
11:56 pm 23:56 Clear 77 25 72 22 83 83 WNW 2 4 29.86 1011 10 16 0.00 0.00

Powered by AerisWeather